Change the Weather History Date:

Friday, March 29, 2013

  Actual Average Record
Temperature  
Mean Temperature 72 °F -  
Max Temperature 84 °F 76 °F 90 °F (2005)
Min Temperature 62 °F 58 °F 39 °F (2009)
Cooling Degree Days 7    
Growing Degree Days 22 (Base 50)    
Moisture  
Dew Point 61 °F    
Average Humidity 70    
Maximum Humidity 90    
Minimum Humidity 44    
Precipitation  
Precipitation 0.00 in - - ()
Sea Level Pressure  
Sea Level Pressure 30.10 in    
Wind  
Wind Speed 11 mph (SE)    
Max Wind Speed 21 mph    
Max Gust Speed 29 mph    
Visibility 10 miles    
Events      
Averages and records for this station are not official NWS values.
T = Trace of Precipitation, MM = Missing Value Source: NWS Daily Summary

Daily Weather History Graph

Daily Weather History Graph

Search for Another Location

Airport or City:

Trip Planner

Search our weather history database for the weather conditions in past years. The results will help you decide how hot, cold, wet, or windy it might be!

Date:

Astronomy

Mar. 29, 2013 Rise Set
Actual Time 7:24 AM CDT 7:47 PM CDT
Civil Twilight 7:01 AM CDT 8:10 PM CDT
Nautical Twilight 6:33 AM CDT 8:38 PM CDT
Astronomical Twilight 6:06 AM CDT 9:05 PM CDT
Moon 10:30 PM CDT (3/29) 8:50 AM CDT (3/29)
Length of Visible Light 13h 09m
Length of Day
12h 22m
Waning Gibbous, 93% of the Moon is Illuminated
Mar 29
Waning Gibbous
Apr 2
Last Quarter
Apr 10
New
Apr 18
First Quarter
Apr 25
Full

Hourly Weather History & Observations

Time (CDT) Temp. Heat Index Dew Point Humidity Pressure Visibility Wind Dir Wind Speed Gust Speed Precip Events Conditions
12:56 AM 64.0 °F - 60.1 °F 87% 30.15 in 10.0 mi ESE 6.9 mph - N/A   Mostly Cloudy
1:56 AM 64.0 °F - 60.1 °F 87% 30.15 in 10.0 mi ESE 5.8 mph - N/A   Mostly Cloudy
2:56 AM 63.0 °F - 60.1 °F 90% 30.14 in 10.0 mi North - - N/A   Mostly Cloudy
3:56 AM 62.1 °F - 59.0 °F 90% 30.12 in 10.0 mi East 4.6 mph - N/A   Overcast
4:56 AM 62.1 °F - 59.0 °F 90% 30.11 in 10.0 mi East 5.8 mph - N/A   Mostly Cloudy
5:56 AM 62.1 °F - 59.0 °F 90% 30.11 in 10.0 mi ESE 4.6 mph - N/A   Mostly Cloudy
6:56 AM 64.9 °F - 61.0 °F 87% 30.12 in 10.0 mi ESE 8.1 mph - N/A   Mostly Cloudy
7:56 AM 66.0 °F - 62.1 °F 87% 30.13 in 10.0 mi SE 4.6 mph - N/A   Mostly Cloudy
8:56 AM 71.1 °F - 61.0 °F 70% 30.14 in 10.0 mi SE 11.5 mph - N/A   Mostly Cloudy
9:56 AM 75.9 °F - 61.0 °F 60% 30.15 in 10.0 mi SSE 13.8 mph 23.0 mph N/A   Mostly Cloudy
10:56 AM 77.0 °F - 61.0 °F 58% 30.15 in 10.0 mi SE 16.1 mph - N/A   Mostly Cloudy
11:56 AM 81.0 °F 81.7 °F 61.0 °F 50% 30.14 in 10.0 mi SE 17.3 mph - N/A   Mostly Cloudy
12:56 PM 82.9 °F 83.3 °F 61.0 °F 47% 30.13 in 10.0 mi SE 18.4 mph 26.5 mph N/A   Mostly Cloudy
1:56 PM 82.9 °F 83.2 °F 60.1 °F 46% 30.10 in 10.0 mi SE 13.8 mph 27.6 mph N/A   Mostly Cloudy
2:56 PM 82.9 °F 83.2 °F 60.1 °F 46% 30.07 in 10.0 mi SE 18.4 mph 26.5 mph N/A   Mostly Cloudy
3:56 PM 82.9 °F 82.8 °F 59.0 °F 44% 30.05 in 10.0 mi ESE 19.6 mph 27.6 mph N/A   Mostly Cloudy
4:56 PM 81.0 °F 81.1 °F 57.9 °F 45% 30.04 in 10.0 mi SE 20.7 mph 27.6 mph N/A   Mostly Cloudy
5:56 PM 77.0 °F - 60.1 °F 56% 30.04 in 10.0 mi SE 20.7 mph 27.6 mph N/A   Mostly Cloudy
6:56 PM 73.9 °F - 62.1 °F 66% 30.05 in 10.0 mi SE 19.6 mph 26.5 mph N/A   Clear
7:56 PM 72.0 °F - 63.0 °F 73% 30.05 in 10.0 mi SE 15.0 mph 28.8 mph N/A   Clear
8:56 PM 71.1 °F - 62.1 °F 73% 30.06 in 10.0 mi SE 18.4 mph 21.9 mph N/A   Clear
9:56 PM 71.1 °F - 63.0 °F 75% 30.08 in 10.0 mi SE 13.8 mph - N/A   Clear
10:56 PM 70.0 °F - 63.0 °F 78% 30.08 in 10.0 mi SE 11.5 mph - N/A   Clear
11:56 PM 69.1 °F - 63.0 °F 81% 30.10 in 10.0 mi SE 10.4 mph - N/A   Clear